| time (UTC) | temp F | wind direction | speed knots | gust knots | rain 1hr in | rain 24hr in | rain mn in | humidity % | barometer mb |
| 20260507020601 | 52 | 105 | 1.7 | 1.7 | 0.00 | 0.02 | 0.02 | 66 | 1018.5 |
| 20260507020057 | 52 | 92 | 1.7 | 2.6 | 0.00 | 0.02 | 0.02 | 65 | 1018.5 |
| 20260507015556 | 53 | 85 | 1.7 | 1.7 | 0.00 | 0.02 | 0.02 | 64 | 1018.3 |
| 20260507015052 | 53 | 83 | 1.7 | 1.7 | 0.00 | 0.02 | 0.02 | 64 | 1018.1 |
| 20260507014549 | 53 | 63 | 1.7 | 1.7 | 0.00 | 0.02 | 0.02 | 63 | 1018.1 |
| 20260507014045 | 53 | 107 | 1.7 | 1.7 | 0.00 | 0.02 | 0.02 | 63 | 1018.1 |
| 20260507013542 | 54 | 89 | 1.7 | 2.6 | 0.00 | 0.02 | 0.02 | 63 | 1018.3 |
| 20260507013039 | 55 | 68 | 1.7 | 1.7 | 0.00 | 0.02 | 0.02 | 60 | 1018.3 |
| 20260507012536 | 55 | 75 | 1.7 | 1.7 | 0.00 | 0.02 | 0.02 | 60 | 1018.0 |
| 20260507012032 | 55 | 89 | 0.9 | 1.7 | 0.00 | 0.02 | 0.02 | 59 | 1017.9 |
| 20260507011530 | 55 | 67 | 0.9 | 2.6 | 0.00 | 0.02 | 0.02 | 59 | 1018.0 |
| 20260507011025 | 56 | 73 | 0.0 | 2.6 | 0.00 | 0.02 | 0.02 | 59 | 1017.9 |
| 20260507010520 | 57 | 102 | 2.6 | 2.6 | 0.00 | 0.02 | 0.02 | 56 | 1018.1 |
| 20260507010017 | 57 | 102 | 2.6 | 2.6 | 0.00 | 0.02 | 0.02 | 56 | 1018.1 |
| 20260507005515 | 58 | 118 | 0.0 | 2.6 | 0.00 | 0.02 | 0.02 | 54 | 1017.7 |
| 20260507005011 | 58 | 59 | 0.9 | 2.6 | 0.00 | 0.02 | 0.02 | 55 | 1017.9 |
| 20260507004508 | 58 | 60 | 1.7 | 3.5 | 0.00 | 0.02 | 0.02 | 53 | 1017.7 |
| 20260507004005 | 58 | 86 | 0.0 | 3.5 | 0.00 | 0.02 | 0.02 | 53 | 1017.7 |
| 20260507003500 | 59 | 53 | 1.7 | 3.5 | 0.00 | 0.02 | 0.02 | 51 | 1017.8 |
| 20260507002955 | 59 | 53 | 1.7 | 3.5 | 0.00 | 0.02 | 0.02 | 51 | 1017.8 |
| 20260507002453 | 59 | 89 | 0.9 | 2.6 | 0.00 | 0.02 | 0.02 | 52 | 1017.7 |
| 20260507001949 | 59 | 101 | 2.6 | 4.3 | 0.00 | 0.02 | 0.02 | 51 | 1017.6 |
| 20260507001446 | 59 | 116 | 0.0 | 2.6 | 0.00 | 0.02 | 0.02 | 51 | 1017.5 |
| 20260507000943 | 60 | 70 | 1.7 | 2.6 | 0.00 | 0.02 | 0.02 | 53 | 1017.5 |
| 20260507000439 | 59 | 58 | 1.7 | 3.5 | 0.00 | 0.02 | 0.02 | 53 | 1017.5 |
| 20260506235934 | 59 | 85 | 0.9 | 3.5 | 0.00 | 0.02 | 0.02 | 54 | 1017.6 |
| 20260506235432 | 59 | 93 | 1.7 | 3.5 | 0.00 | 0.02 | 0.02 | 53 | 1017.6 |
| 20260506234927 | 60 | 78 | 0.9 | 3.5 | 0.00 | 0.02 | 0.02 | 53 | 1017.4 |
| 20260506234425 | 60 | 335 | 0.0 | 3.5 | 0.00 | 0.02 | 0.02 | 53 | 1017.7 |
| 20260506233923 | 60 | 34 | 1.7 | 3.5 | 0.00 | 0.02 | 0.02 | 53 | 1017.2 |
| 20260506233419 | 60 | 31 | 1.7 | 1.7 | 0.00 | 0.02 | 0.02 | 53 | 1017.6 |
| 20260506232910 | 60 | 28 | 0.0 | 2.6 | 0.00 | 0.02 | 0.02 | 53 | 1017.6 |
| 20260506232407 | 60 | 36 | 1.7 | 3.5 | 0.00 | 0.02 | 0.02 | 52 | 1017.2 |
| 20260506231903 | 61 | 117 | 2.6 | 3.5 | 0.00 | 0.02 | 0.02 | 52 | 1017.5 |
| 20260506231400 | 61 | 107 | 1.7 | 5.2 | 0.00 | 0.02 | 0.02 | 51 | 1017.6 |
| 20260506230857 | 61 | 83 | 1.7 | 3.5 | 0.00 | 0.02 | 0.02 | 52 | 1017.4 |
| 20260506230354 | 62 | 78 | 1.7 | 5.2 | 0.00 | 0.02 | 0.02 | 51 | 1017.3 |
| 20260506225850 | 61 | 73 | 2.6 | 4.3 | 0.00 | 0.02 | 0.02 | 52 | 1016.9 |
| 20260506225348 | 61 | 82 | 2.6 | 2.6 | 0.00 | 0.02 | 0.02 | 51 | 1016.8 |
| 20260506224845 | 62 | 127 | 3.5 | 11.3 | 0.00 | 0.02 | 0.02 | 51 | 1016.8 |
| 20260506224342 | 62 | 47 | 0.9 | 4.3 | 0.00 | 0.02 | 0.02 | 51 | 1016.8 |
| 20260506223838 | 62 | 74 | 3.5 | 5.2 | 0.00 | 0.02 | 0.02 | 51 | 1016.7 |
| 20260506223333 | 62 | 121 | 1.7 | 3.5 | 0.00 | 0.02 | 0.02 | 53 | 1016.4 |
| 20260506222830 | 62 | 117 | 3.5 | 5.2 | 0.00 | 0.02 | 0.02 | 54 | 1016.1 |
| 20260506222326 | 62 | 94 | 3.5 | 6.1 | 0.00 | 0.02 | 0.02 | 55 | 1016.2 |
| 20260506221824 | 61 | 125 | 4.3 | 5.2 | 0.00 | 0.02 | 0.02 | 54 | 1016.2 |
| 20260506221321 | 61 | 75 | 2.6 | 5.2 | 0.00 | 0.02 | 0.02 | 53 | 1016.1 |
| 20260506220819 | 62 | 103 | 2.6 | 4.3 | 0.00 | 0.02 | 0.02 | 54 | 1016.1 |
| 20260506220319 | 60 | 35 | 1.7 | 3.5 | 0.00 | 0.02 | 0.02 | 57 | 1016.4 |
| 20260506215816 | 60 | 66 | 0.9 | 4.3 | 0.00 | 0.02 | 0.02 | 56 | 1016.6 |
| 20260506215312 | 60 | 84 | 2.6 | 6.1 | 0.00 | 0.02 | 0.02 | 54 | 1016.7 |
| 20260506214808 | 60 | 37 | 0.0 | 5.2 | 0.00 | 0.02 | 0.02 | 56 | 1016.7 |
| 20260506214305 | 61 | 98 | 4.3 | 5.2 | 0.00 | 0.02 | 0.02 | 58 | 1016.7 |
| 20260506213803 | 60 | 110 | 1.7 | 6.1 | 0.00 | 0.02 | 0.02 | 58 | 1016.4 |
| 20260506213300 | 60 | 86 | 4.3 | 7.8 | 0.00 | 0.02 | 0.02 | 59 | 1016.8 |
| 20260506212757 | 60 | 63 | 6.1 | 7.0 | 0.00 | 0.02 | 0.02 | 59 | 1017.0 |
| 20260506212253 | 60 | 96 | 0.0 | 1.7 | 0.00 | 0.02 | 0.02 | 59 | 1016.9 |
| 20260506211748 | 61 | 70 | 2.6 | 3.5 | 0.00 | 0.02 | 0.02 | 58 | 1016.8 |
| 20260506211245 | 60 | 51 | 1.7 | 5.2 | 0.00 | 0.02 | 0.02 | 59 | 1016.8 |
| 20260506210742 | 59 | 129 | 2.6 | 6.1 | 0.00 | 0.02 | 0.02 | 59 | 1016.9 |
| 20260506210239 | 59 | 79 | 5.2 | 7.0 | 0.00 | 0.02 | 0.02 | 62 | 1017.0 |
| 20260506205736 | 59 | 56 | 3.5 | 5.2 | 0.00 | 0.02 | 0.02 | 61 | 1017.2 |
| 20260506205232 | 59 | 61 | 3.5 | 7.0 | 0.00 | 0.02 | 0.02 | 61 | 1017.4 |
| 20260506204729 | 59 | 79 | 1.7 | 3.5 | 0.00 | 0.02 | 0.02 | 61 | 1017.1 |
| 20260506204226 | 59 | 146 | 4.3 | 8.7 | 0.00 | 0.02 | 0.02 | 61 | 1017.5 |
| 20260506203724 | 59 | 43 | 3.5 | 5.2 | 0.00 | 0.02 | 0.02 | 60 | 1017.3 |
| 20260506203215 | 61 | 46 | 4.3 | 6.1 | 0.00 | 0.02 | 0.02 | 58 | 1017.5 |
| 20260506202713 | 61 | 79 | 6.1 | 7.8 | 0.00 | 0.02 | 0.02 | 59 | 1017.5 |
| 20260506202208 | 60 | 80 | 1.7 | 2.6 | 0.00 | 0.02 | 0.02 | 62 | 1017.5 |
| 20260506201706 | 59 | 51 | 4.3 | 5.2 | 0.00 | 0.02 | 0.02 | 60 | 1017.6 |
| 20260506201202 | 59 | 119 | 2.6 | 5.2 | 0.00 | 0.02 | 0.02 | 60 | 1017.7 |
| 20260506200659 | 59 | 42 | 1.7 | 10.4 | 0.00 | 0.02 | 0.02 | 60 | 1017.8 |
| 20260506200156 | 59 | 147 | 4.3 | 5.2 | 0.00 | 0.02 | 0.02 | 58 | 1017.9 |
| 20260506195652 | 60 | 141 | 5.2 | 6.1 | 0.00 | 0.02 | 0.02 | 59 | 1018.1 |
| 20260506195148 | 60 | 79 | 5.2 | 8.7 | 0.00 | 0.02 | 0.02 | 56 | 1018.0 |
| 20260506194646 | 60 | 102 | 2.6 | 6.1 | 0.00 | 0.02 | 0.02 | 57 | 1018.0 |
| 20260506194142 | 59 | 92 | 3.5 | 5.2 | 0.00 | 0.02 | 0.02 | 57 | 1018.1 |
| 20260506193640 | 59 | 87 | 2.6 | 7.0 | 0.00 | 0.02 | 0.02 | 59 | 1018.2 |
| 20260506193137 | 59 | 84 | 4.3 | 5.2 | 0.00 | 0.02 | 0.02 | 58 | 1018.2 |
| 20260506192634 | 58 | 60 | 4.3 | 8.7 | 0.00 | 0.02 | 0.02 | 59 | 1018.2 |
| 20260506192130 | 58 | 92 | 5.2 | 6.1 | 0.00 | 0.02 | 0.02 | 59 | 1018.2 |
| 20260506191627 | 58 | 148 | 1.7 | 5.2 | 0.00 | 0.02 | 0.02 | 57 | 1018.5 |
| 20260506191123 | 59 | 91 | 3.5 | 5.2 | 0.00 | 0.02 | 0.02 | 56 | 1018.4 |
| 20260506190621 | 59 | 57 | 1.7 | 3.5 | 0.00 | 0.02 | 0.02 | 59 | 1018.3 |
| 20260506190117 | 58 | 83 | 2.6 | 4.3 | 0.00 | 0.02 | 0.02 | 58 | 1018.5 |
| 20260506185614 | 58 | 52 | 0.9 | 3.5 | 0.00 | 0.02 | 0.02 | 60 | 1018.3 |
| 20260506185110 | 58 | 113 | 0.9 | 3.5 | 0.00 | 0.02 | 0.02 | 60 | 1018.4 |
| 20260506184608 | 58 | 41 | 3.5 | 4.3 | 0.00 | 0.02 | 0.02 | 59 | 1018.3 |
| 20260506184105 | 59 | 64 | 1.7 | 2.6 | 0.00 | 0.02 | 0.02 | 60 | 1018.4 |
| 20260506183601 | 58 | 67 | 1.7 | 3.5 | 0.00 | 0.02 | 0.02 | 62 | 1018.7 |
| 20260506183057 | 58 | 34 | 0.9 | 6.1 | 0.00 | 0.02 | 0.02 | 61 | 1018.7 |
| 20260506182555 | 58 | 17 | 2.6 | 4.3 | 0.00 | 0.02 | 0.02 | 61 | 1018.7 |
| 20260506182052 | 58 | 63 | 1.7 | 7.0 | 0.00 | 0.02 | 0.02 | 61 | 1018.9 |
| 20260506181550 | 58 | 52 | 1.7 | 2.6 | 0.00 | 0.02 | 0.02 | 61 | 1019.0 |
| 20260506181046 | 57 | 88 | 0.9 | 3.5 | 0.00 | 0.02 | 0.02 | 61 | 1019.0 |
| 20260506180543 | 57 | 55 | 2.6 | 2.6 | 0.00 | 0.02 | 0.02 | 60 | 1019.5 |
| 20260506180040 | 57 | 108 | 3.5 | 6.1 | 0.00 | 0.02 | 0.02 | 63 | 1019.3 |
| 20260506175536 | 57 | 79 | 3.5 | 6.1 | 0.00 | 0.02 | 0.02 | 61 | 1019.6 |
| 20260506175033 | 55 | 48 | 1.7 | 7.8 | 0.00 | 0.02 | 0.02 | 65 | 1019.8 |
| 20260506174532 | 56 | 86 | 2.6 | 5.2 | 0.00 | 0.02 | 0.02 | 64 | 1019.8 |
| 20260506174027 | 56 | 86 | 2.6 | 5.2 | 0.00 | 0.02 | 0.02 | 64 | 1019.8 |
| 20260506173525 | 55 | 70 | 3.5 | 8.7 | 0.00 | 0.02 | 0.02 | 63 | 1019.9 |
| 20260506173022 | 55 | 103 | 4.3 | 6.1 | 0.00 | 0.02 | 0.02 | 65 | 1020.0 |
| 20260506172519 | 55 | 84 | 4.3 | 6.1 | 0.00 | 0.02 | 0.02 | 63 | 1020.0 |
| 20260506172015 | 55 | 74 | 3.5 | 5.2 | 0.00 | 0.02 | 0.02 | 65 | 1020.1 |
| 20260506171514 | 54 | 68 | 1.7 | 6.1 | 0.00 | 0.02 | 0.02 | 66 | 1020.1 |
| 20260506171011 | 54 | 107 | 2.6 | 4.3 | 0.00 | 0.02 | 0.02 | 67 | 1020.0 |
| 20260506170508 | 53 | 98 | 1.7 | 7.8 | 0.00 | 0.02 | 0.02 | 67 | 1020.1 |
| 20260506170005 | 53 | 91 | 1.7 | 9.6 | 0.00 | 0.02 | 0.02 | 68 | 1020.0 |
| 20260506165504 | 53 | 105 | 3.5 | 7.0 | 0.00 | 0.02 | 0.02 | 68 | 1019.8 |
| 20260506164959 | 53 | 82 | 5.2 | 7.8 | 0.00 | 0.02 | 0.02 | 68 | 1019.6 |
| 20260506164456 | 53 | 65 | 3.5 | 9.6 | 0.00 | 0.02 | 0.02 | 67 | 1019.5 |
| 20260506163954 | 53 | 97 | 6.1 | 10.4 | 0.00 | 0.02 | 0.02 | 67 | 1019.5 |
| 20260506163449 | 53 | 89 | 5.2 | 6.1 | 0.00 | 0.02 | 0.02 | 69 | 1019.1 |
| 20260506162944 | 52 | 98 | 3.5 | 8.7 | 0.00 | 0.02 | 0.02 | 70 | 1019.1 |
| 20260506162442 | 52 | 77 | 4.3 | 7.8 | 0.00 | 0.02 | 0.02 | 69 | 1019.1 |
| 20260506161939 | 52 | 95 | 5.2 | 7.0 | 0.00 | 0.02 | 0.02 | 72 | 1019.1 |
| 20260506161437 | 52 | 68 | 5.2 | 8.7 | 0.00 | 0.02 | 0.02 | 71 | 1018.9 |
| 20260506160934 | 52 | 74 | 6.1 | 8.7 | 0.00 | 0.02 | 0.02 | 70 | 1019.0 |
| 20260506160431 | 52 | 78 | 5.2 | 9.6 | 0.00 | 0.02 | 0.02 | 70 | 1018.9 |
| 20260506155929 | 53 | 74 | 6.1 | 10.4 | 0.00 | 0.02 | 0.02 | 69 | 1018.8 |
| 20260506155426 | 54 | 94 | 6.1 | 6.1 | 0.00 | 0.02 | 0.02 | 68 | 1018.7 |
| 20260506153548 | 51 | 39 | 2.6 | 9.6 | 0.00 | 0.02 | 0.02 | 72 | 1018.5 |
| 20260506153045 | 51 | 91 | 5.2 | 7.0 | 0.00 | 0.02 | 0.02 | 71 | 1018.5 |
| 20260506152542 | 51 | 80 | 0.0 | 3.5 | 0.00 | 0.02 | 0.02 | 72 | 1018.8 |
| 20260506152040 | 51 | 52 | 6.1 | 9.6 | 0.00 | 0.02 | 0.02 | 72 | 1018.9 |
| 20260506151538 | 51 | 51 | 5.2 | 8.7 | 0.00 | 0.02 | 0.02 | 71 | 1018.6 |
| 20260506151035 | 51 | 89 | 5.2 | 9.6 | 0.00 | 0.02 | 0.02 | 71 | 1018.7 |
| 20260506150532 | 51 | 89 | 5.2 | 9.6 | 0.00 | 0.02 | 0.02 | 71 | 1018.7 |
| 20260506150029 | 51 | 77 | 3.5 | 5.2 | 0.00 | 0.02 | 0.02 | 72 | 1018.7 |
| 20260506145525 | 51 | 93 | 6.1 | 7.0 | 0.00 | 0.02 | 0.02 | 72 | 1018.6 |
| 20260506145022 | 51 | 46 | 0.9 | 3.5 | 0.00 | 0.02 | 0.02 | 75 | 1018.5 |
| 20260506144519 | 51 | 96 | 5.2 | 8.7 | 0.00 | 0.02 | 0.02 | 73 | 1018.9 |
| 20260506144016 | 51 | 35 | 1.7 | 5.2 | 0.00 | 0.02 | 0.02 | 74 | 1018.4 |
| 20260506143514 | 51 | 96 | 2.6 | 3.5 | 0.00 | 0.02 | 0.02 | 75 | 1018.5 |
| 20260506143012 | 50 | 73 | 3.5 | 7.0 | 0.00 | 0.02 | 0.02 | 75 | 1018.4 |
| 20260506142509 | 50 | 27 | 3.5 | 4.3 | 0.00 | 0.02 | 0.02 | 76 | 1018.5 |
| 20260506142008 | 50 | 95 | 2.6 | 10.4 | 0.00 | 0.02 | 0.02 | 75 | 1018.1 |
| 20260506141505 | 51 | 72 | 7.0 | 7.8 | 0.00 | 0.02 | 0.02 | 76 | 1018.1 |
| 20260506141003 | 50 | 92 | 0.9 | 5.2 | 0.00 | 0.02 | 0.02 | 78 | 1018.3 |
| 20260506140500 | 50 | 70 | 2.6 | 5.2 | 0.00 | 0.02 | 0.02 | 79 | 1018.3 |
| 20260506135957 | 50 | 71 | 6.1 | 12.2 | 0.00 | 0.02 | 0.02 | 77 | 1018.1 |
| 20260506135455 | 49 | 142 | 3.5 | 5.2 | 0.00 | 0.02 | 0.02 | 79 | 1018.3 |
| 20260506134950 | 49 | 78 | 2.6 | 8.7 | 0.00 | 0.02 | 0.02 | 79 | 1018.6 |
| 20260506134446 | 49 | 64 | 8.7 | 11.3 | 0.00 | 0.02 | 0.02 | 79 | 1018.5 |
| 20260506133943 | 48 | 75 | 1.7 | 6.1 | 0.00 | 0.02 | 0.02 | 81 | 1018.5 |
| 20260506133440 | 48 | 95 | 4.3 | 7.0 | 0.00 | 0.02 | 0.02 | 81 | 1018.5 |
| 20260506132937 | 48 | 72 | 1.7 | 12.2 | 0.00 | 0.02 | 0.02 | 81 | 1018.4 |
| 20260506132434 | 48 | 115 | 1.7 | 9.6 | 0.00 | 0.02 | 0.02 | 82 | 1018.5 |
| 20260506131931 | 48 | 67 | 3.5 | 7.0 | 0.00 | 0.02 | 0.02 | 82 | 1018.3 |
| 20260506131428 | 48 | 124 | 6.1 | 8.7 | 0.00 | 0.02 | 0.02 | 82 | 1018.4 |
| 20260506130925 | 47 | 68 | 2.6 | 6.1 | 0.00 | 0.02 | 0.02 | 84 | 1018.6 |
| 20260506130421 | 47 | 2 | 2.6 | 7.0 | 0.00 | 0.02 | 0.02 | 84 | 1018.5 |
| 20260506125919 | 47 | 92 | 0.0 | 6.1 | 0.00 | 0.02 | 0.02 | 84 | 1018.2 |
| 20260506125417 | 47 | 80 | 1.7 | 7.8 | 0.00 | 0.02 | 0.02 | 84 | 1018.2 |
| 20260506124915 | 47 | 107 | 3.5 | 7.8 | 0.00 | 0.02 | 0.02 | 84 | 1018.2 |
| 20260506124412 | 47 | 99 | 3.5 | 5.2 | 0.00 | 0.02 | 0.02 | 84 | 1018.0 |
| 20260506123910 | 47 | 109 | 7.8 | 8.7 | 0.00 | 0.02 | 0.02 | 84 | 1018.1 |
| 20260506123408 | 47 | 76 | 1.7 | 6.1 | 0.00 | 0.02 | 0.02 | 84 | 1018.1 |
| 20260506122905 | 47 | 41 | 0.0 | 6.1 | 0.00 | 0.02 | 0.02 | 84 | 1018.1 |
| 20260506122402 | 47 | 110 | 1.7 | 6.1 | 0.00 | 0.02 | 0.02 | 84 | 1018.1 |
| 20260506121900 | 47 | 83 | 1.7 | 5.2 | 0.00 | 0.02 | 0.02 | 84 | 1017.6 |
| 20260506121357 | 47 | 111 | 1.7 | 4.3 | 0.00 | 0.02 | 0.02 | 84 | 1017.8 |
| 20260506120853 | 46 | 108 | 3.5 | 4.3 | 0.00 | 0.02 | 0.02 | 84 | 1017.8 |
| 20260506120351 | 46 | 341 | 1.7 | 5.2 | 0.00 | 0.02 | 0.02 | 84 | 1017.6 |
| 20260506115849 | 46 | 97 | 2.6 | 5.2 | 0.00 | 0.02 | 0.02 | 85 | 1017.7 |
| 20260506115347 | 46 | 54 | 1.7 | 3.5 | 0.00 | 0.02 | 0.02 | 85 | 1017.3 |
| 20260506114844 | 46 | 78 | 2.6 | 5.2 | 0.00 | 0.02 | 0.02 | 84 | 1017.3 |
| 20260506114342 | 46 | 82 | 2.6 | 4.3 | 0.00 | 0.02 | 0.02 | 84 | 1017.4 |
| 20260506113840 | 46 | 100 | 2.6 | 3.5 | 0.00 | 0.02 | 0.02 | 84 | 1017.6 |
| 20260506113337 | 46 | 64 | 3.5 | 7.8 | 0.00 | 0.02 | 0.02 | 84 | 1017.6 |
| 20260506112834 | 46 | 107 | 1.7 | 5.2 | 0.00 | 0.02 | 0.02 | 84 | 1017.5 |
| 20260506112331 | 46 | 39 | 0.9 | 5.2 | 0.00 | 0.02 | 0.02 | 84 | 1017.0 |
| 20260506111829 | 46 | 105 | 3.5 | 5.2 | 0.00 | 0.02 | 0.02 | 84 | 1017.3 |
| 20260506111327 | 46 | 99 | 1.7 | 7.8 | 0.00 | 0.02 | 0.02 | 83 | 1017.2 |
| 20260506110824 | 46 | 76 | 4.3 | 6.1 | 0.00 | 0.02 | 0.02 | 82 | 1017.1 |
| 20260506110321 | 46 | 44 | 3.5 | 4.3 | 0.00 | 0.02 | 0.02 | 82 | 1016.9 |
| 20260506105818 | 46 | 62 | 0.0 | 4.3 | 0.00 | 0.02 | 0.02 | 83 | 1017.0 |
| 20260506105314 | 47 | 44 | 2.6 | 4.3 | 0.00 | 0.02 | 0.02 | 83 | 1017.0 |
| 20260506104812 | 47 | 69 | 2.6 | 4.3 | 0.00 | 0.02 | 0.02 | 83 | 1016.4 |
| 20260506104309 | 47 | 108 | 3.5 | 5.2 | 0.00 | 0.02 | 0.02 | 83 | 1016.2 |
| 20260506103807 | 47 | 54 | 2.6 | 5.2 | 0.00 | 0.02 | 0.02 | 83 | 1016.1 |
| 20260506103304 | 47 | 74 | 3.5 | 6.1 | 0.00 | 0.02 | 0.02 | 82 | 1016.1 |
| 20260506102801 | 47 | 106 | 1.7 | 4.3 | 0.00 | 0.02 | 0.02 | 83 | 1016.0 |
| 20260506102259 | 47 | 81 | 2.6 | 3.5 | 0.00 | 0.02 | 0.02 | 83 | 1015.8 |
| 20260506101756 | 47 | 105 | 2.6 | 8.7 | 0.00 | 0.02 | 0.02 | 83 | 1015.6 |
| 20260506101252 | 47 | 85 | 1.7 | 5.2 | 0.00 | 0.02 | 0.02 | 83 | 1015.5 |
| 20260506100750 | 47 | 32 | 3.5 | 6.1 | 0.00 | 0.02 | 0.02 | 83 | 1015.3 |
| 20260506100248 | 47 | 100 | 0.9 | 6.1 | 0.00 | 0.02 | 0.02 | 83 | 1015.2 |
| 20260506095747 | 47 | 88 | 4.3 | 11.3 | 0.00 | 0.02 | 0.02 | 83 | 1015.1 |
| 20260506095243 | 47 | 73 | 4.3 | 5.2 | 0.00 | 0.02 | 0.02 | 84 | 1015.1 |
| 20260506094740 | 47 | 68 | 2.6 | 5.2 | 0.00 | 0.02 | 0.02 | 84 | 1014.8 |
| 20260506094238 | 47 | 84 | 4.3 | 8.7 | 0.00 | 0.02 | 0.02 | 84 | 1014.5 |
| 20260506093737 | 47 | 133 | 0.9 | 4.3 | 0.00 | 0.02 | 0.02 | 84 | 1014.4 |
| 20260506093233 | 47 | 112 | 2.6 | 4.3 | 0.00 | 0.02 | 0.02 | 85 | 1014.4 |
| 20260506092731 | 47 | 80 | 1.7 | 6.1 | 0.00 | 0.02 | 0.02 | 85 | 1014.1 |
| 20260506092229 | 47 | 94 | 4.3 | 9.6 | 0.00 | 0.02 | 0.02 | 84 | 1014.3 |
| 20260506091727 | 47 | 95 | 2.6 | 4.3 | 0.00 | 0.02 | 0.02 | 85 | 1014.7 |
| 20260506091224 | 47 | 75 | 4.3 | 7.8 | 0.00 | 0.02 | 0.02 | 84 | 1014.8 |
| 20260506090722 | 47 | 70 | 3.5 | 9.6 | 0.00 | 0.02 | 0.02 | 83 | 1014.7 |
| 20260506090218 | 47 | 92 | 4.3 | 11.3 | 0.00 | 0.02 | 0.02 | 83 | 1014.6 |
| 20260506085715 | 47 | 97 | 5.2 | 8.7 | 0.00 | 0.02 | 0.02 | 83 | 1014.7 |
| 20260506085211 | 47 | 62 | 6.1 | 12.2 | 0.00 | 0.02 | 0.02 | 82 | 1014.8 |
| 20260506084708 | 47 | 70 | 7.8 | 10.4 | 0.00 | 0.02 | 0.02 | 82 | 1014.6 |
| 20260506084204 | 46 | 85 | 6.1 | 7.8 | 0.00 | 0.02 | 0.02 | 83 | 1014.4 |
| 20260506083702 | 47 | 71 | 2.6 | 7.0 | 0.00 | 0.02 | 0.02 | 83 | 1014.4 |
| 20260506083159 | 46 | 51 | 4.3 | 10.4 | 0.00 | 0.02 | 0.02 | 83 | 1014.5 |
| 20260506082657 | 46 | 81 | 4.3 | 5.2 | 0.00 | 0.02 | 0.02 | 85 | 1014.4 |
| 20260506082156 | 46 | 98 | 4.3 | 9.6 | 0.00 | 0.02 | 0.02 | 85 | 1014.5 |
| 20260506081655 | 46 | 143 | 1.7 | 9.6 | 0.00 | 0.02 | 0.02 | 85 | 1014.0 |
| 20260506081152 | 46 | 124 | 1.7 | 7.0 | 0.00 | 0.02 | 0.02 | 88 | 1013.8 |
| 20260506080650 | 46 | 124 | 1.7 | 7.0 | 0.00 | 0.02 | 0.02 | 88 | 1013.8 |
| 20260506080146 | 46 | 76 | 5.2 | 12.2 | 0.00 | 0.02 | 0.02 | 87 | 1014.4 |
| 20260506073130 | 46 | 94 | 7.0 | 7.0 | 0.00 | 0.02 | 0.02 | 90 | 1013.7 |
| 20260506072627 | 46 | 81 | 3.5 | 6.1 | 0.00 | 0.02 | 0.02 | 91 | 1013.8 |
| 20260506072125 | 46 | 93 | 4.3 | 7.0 | 0.00 | 0.02 | 0.02 | 91 | 1013.7 |
| 20260506071622 | 46 | 64 | 2.6 | 10.4 | 0.02 | 0.02 | 0.02 | 92 | 1013.6 |
| 20260506071119 | 46 | 16 | 0.9 | 6.1 | 0.02 | 0.02 | 0.02 | 93 | 1013.7 |
| 20260506070616 | 46 | 19 | 2.6 | 8.7 | 0.02 | 0.01 | 0.01 | 93 | 1013.8 |
| 20260506070113 | 46 | 83 | 5.2 | 5.2 | 0.05 | 0.01 | 0.01 | 93 | 1013.7 |
| 20260506062050 | 46 | 55 | 2.6 | 7.0 | 0.00 | 0.00 | 0.00 | 92 | 1014.4 |
| 20260506061546 | 46 | 116 | 7.0 | 7.8 | 0.00 | 0.00 | 0.00 | 92 | 1014.3 |
| 20260506061044 | 46 | 60 | 4.3 | 12.2 | 0.00 | 0.00 | 0.00 | 92 | 1014.3 |
| 20260506060543 | 46 | 83 | 2.6 | 5.2 | 0.00 | 0.00 | 0.00 | 92 | 1014.3 |
| 20260506051011 | 47 | 38 | 2.6 | 3.5 | 0.00 | 0.00 | 0.00 | 92 | 1014.1 |
| 20260506050509 | 47 | 306 | 0.0 | 3.5 | 0.00 | 0.00 | 0.00 | 92 | 1014.0 |
| 20260506044959 | 47 | 287 | 1.7 | 3.5 | 0.00 | 1.19 | 1.19 | 93 | 1013.6 |
| 20260506044458 | 47 | 89 | 0.0 | 3.5 | 0.00 | 1.19 | 1.19 | 93 | 1013.3 |
| 20260506043954 | 47 | 316 | 1.7 | 3.5 | 0.00 | 1.19 | 1.19 | 93 | 1013.5 |
| 20260506043451 | 47 | 54 | 2.6 | 4.3 | 0.00 | 1.19 | 1.19 | 93 | 1013.7 |
| 20260506042949 | 47 | 16 | 0.9 | 2.6 | 0.00 | 1.19 | 1.19 | 94 | 1013.6 |
| 20260506042448 | 47 | 86 | 1.7 | 3.5 | 0.00 | 1.19 | 1.19 | 94 | 1013.6 |
| 20260506041946 | 47 | 38 | 0.0 | 2.6 | 0.00 | 1.19 | 1.19 | 93 | 1014.0 |
| 20260506041444 | 47 | 105 | 3.5 | 3.5 | 0.00 | 1.19 | 1.19 | 93 | 1013.2 |
| 20260506040940 | 47 | 101 | 2.6 | 4.3 | 0.00 | 1.19 | 1.19 | 93 | 1013.2 |
| 20260506040438 | 47 | 342 | 0.9 | 2.6 | 0.00 | 1.19 | 1.19 | 93 | 1013.3 |
| 20260506035934 | 48 | 132 | 1.7 | 3.5 | 0.00 | 1.19 | 1.19 | 93 | 1013.3 |
| 20260506035431 | 48 | 83 | 1.7 | 3.5 | 0.00 | 1.19 | 1.19 | 92 | 1013.2 |
| 20260506034928 | 48 | 38 | 0.0 | 2.6 | 0.00 | 1.19 | 1.19 | 92 | 1013.2 |
| 20260506034425 | 48 | 269 | 0.0 | 3.5 | 0.00 | 1.19 | 1.19 | 91 | 1012.7 |
| 20260506033922 | 48 | 269 | 0.0 | 3.5 | 0.00 | 1.19 | 1.19 | 91 | 1012.7 |
| 20260506033420 | 48 | 60 | 1.7 | 2.6 | 0.00 | 1.19 | 1.19 | 91 | 1013.0 |
| 20260506032916 | 48 | 68 | 0.9 | 1.7 | 0.00 | 1.19 | 1.19 | 91 | 1012.8 |
| 20260506032413 | 48 | 101 | 0.9 | 2.6 | 0.00 | 1.19 | 1.19 | 91 | 1012.8 |
| 20260506031910 | 48 | 64 | 1.7 | 6.1 | 0.00 | 1.19 | 1.19 | 91 | 1012.5 |
| 20260506031407 | 48 | 48 | 2.6 | 3.5 | 0.00 | 1.19 | 1.19 | 91 | 1012.7 |
| 20260506030905 | 48 | 28 | 1.7 | 5.2 | 0.00 | 1.19 | 1.19 | 92 | 1012.2 |
| 20260506030403 | 48 | 78 | 1.7 | 3.5 | 0.00 | 1.19 | 1.19 | 92 | 1012.3 |
| 20260506025859 | 48 | 80 | 1.7 | 4.3 | 0.00 | 1.19 | 1.19 | 92 | 1012.1 |
| 20260506025356 | 48 | 59 | 2.6 | 5.2 | 0.00 | 1.19 | 1.19 | 92 | 1012.1 |
| 20260506024853 | 48 | 66 | 0.9 | 4.3 | 0.00 | 1.19 | 1.19 | 92 | 1012.2 |
| 20260506024350 | 48 | 113 | 0.9 | 2.6 | 0.00 | 1.19 | 1.19 | 92 | 1011.9 |
| 20260506023846 | 48 | 93 | 1.7 | 1.7 | 0.00 | 1.19 | 1.19 | 92 | 1011.5 |
| 20260506023343 | 48 | 87 | 2.6 | 6.1 | 0.00 | 1.19 | 1.19 | 92 | 1011.5 |
| 20260506022839 | 48 | 64 | 2.6 | 8.7 | 0.00 | 1.19 | 1.19 | 92 | 1011.5 |
| 20260506022337 | 48 | 30 | 0.0 | 3.5 | 0.00 | 1.19 | 1.19 | 92 | 1011.2 |
| 20260506021835 | 48 | 83 | 5.2 | 7.8 | 0.00 | 1.19 | 1.19 | 92 | 1011.2 |
| 20260506021332 | 48 | 72 | 0.9 | 2.6 | 0.00 | 1.19 | 1.19 | 92 | 1011.4 |